ワイズ彗星

337P/WISE (2022)

English version
Home page
Updated on September 11, 2022

---------------------------------------------------------------------

・ プロフィール

・ 写真集

・ 軌道要素

Epoch 2022 Jan. 21.0 TT = JDT 2459600.5
T 2022 July 1.14238 TT                                  Rudenko
q   1.6541105            (2000.0)            P               Q
n   0.16544720     Peri.  161.02189     -0.03968171     +0.96620063
a   3.2862185      Node   106.06278     -0.94763066     +0.04445613
e   0.4966523      Incl.   15.37095     -0.31689349     -0.25392912
P   5.96
From 228 observations 2010 Apr. 13-2022 Apr. 3, mean residual 0".4.

・ 光度変化

        m1 = 13.5 + 5 logΔ + 25.0 log r

---------------------------------------------------------------------

軌道要素はM.P.E.C. 2022-G109に掲載されたものです。
光度グラフはComet for Windowsで作成したものです。

---------------------------------------------------------------------

Copyright(C) Seiichi Yoshida (comet@aerith.net). All rights reserved.